Home > Weather > Thompson > Past weeks

Flag for Canada Weather for the Past 2 Weeks in Thompson, Manitoba, Canada

Now
54 °F

Sunny.


Feels Like: 51 °F
Forecast: 33 / 69 °F
Wind: 8 mph from Northeast

Location: Thompson

Current Time: May 3, 2016 at 7:45:40 PM

Latest Report: May 3, 2016 at 7:00 PM


Visibility: 15 mi

Pressure: 30.10 "Hg

Humidity: 28%

Dew Point: 21 °F

Location of ThompsonLocation

Historic Weather in Thompson — Graph

°F

Thompson Temperature Yesterday

Maximum temperature yesterday: 68 °F (at 12:00 PM)
Minimum temperature yesterday: 32 °F (at 4:00 AM)
Average temperature yesterday: 52 °F

High & Low Weather Summary for the Past Weeks

 TemperatureHumidityPressure
High70 °F (Apr 19, 4:00 PM)93% (May 2, 12:00 AM)30.47 "Hg (May 2, 12:00 AM)
Low10 °F (Apr 21, 6:00 AM)13% (Apr 19, 5:00 PM)29.61 "Hg (Apr 20, 1:00 AM)
Average40 °F44%30.23 "Hg
* Reported Apr 18 6:00 PM — May 3 6:00 PM, Thompson, Weather by CustomWeather, © 2016

Note: Actual official high and low records may vary slightly from our data, if they occured in-between our weather recording intervals... More about our weather records

Advertising

Thompson Weather History for the Previous 24 Hours

Scroll right to see more
 ConditionsComfort  
Time TempWeatherWind HumidityBarometerVisibility
6:00 PM
Tue, May 3
54 °FSunny.5 mph26%30.10 "Hg15 mi
5:00 PM54 °FSunny.12 mph28%30.10 "Hg15 mi
4:00 PM54 °FSunny.12 mph28%30.10 "Hg15 mi
3:00 PM54 °FSunny.15 mph30%30.10 "Hg15 mi
2:00 PM54 °FSunny.10 mph30%30.11 "Hg15 mi
1:00 PM48 °FSunny.6 mph37%30.12 "Hg15 mi
12:00 PM46 °FSunny.9 mph43%30.11 "Hg15 mi
11:00 AM45 °FSunny.7 mph46%30.11 "Hg15 mi
10:00 AM41 °FSunny.12 mph61%30.10 "Hg15 mi
9:00 AM37 °FPassing clouds.15 mph65%30.09 "Hg15 mi
8:00 AM37 °FPassing clouds.15 mph70%30.07 "Hg15 mi
7:00 AM37 °FPartly sunny.10 mph70%30.05 "Hg15 mi
6:00 AM37 °FPassing clouds.13 mph75%30.02 "Hg15 mi
5:00 AM37 °FPassing clouds.8 mph75%30.00 "Hg15 mi
4:00 AM37 °FPassing clouds.8 mph75%29.98 "Hg15 mi
3:00 AM41 °FPassing clouds.9 mph66%29.96 "Hg15 mi
2:00 AM41 °FPassing clouds.13 mph66%29.95 "Hg15 mi
1:00 AM41 °FPassing clouds.12 mph66%29.95 "Hg15 mi
12:00 AM41 °FClear.17 mph66%29.94 "Hg15 mi
11:00 PM
Mon, May 2
46 °FClear.13 mph53%29.91 "Hg15 mi
10:00 PM50 °FPassing clouds.6 mph43%29.88 "Hg15 mi
9:00 PM54 °FPassing clouds.13 mph38%29.88 "Hg15 mi
8:00 PM57 °FPassing clouds.24 mph36%29.87 "Hg15 mi
7:00 PM63 °FPassing clouds.15 mph25%29.84 "Hg15 mi
Weather by CustomWeather, © 2016

See weather overviewHow to use our weather pages